Athens, GA

1:09 PM EDT on May 24, 2017 (GMT -0400)
Athens / Epps

Weather History for KAHN - May, 2014

Change the Weather History Date:

Saturday, May 17, 2014

  Actual Average Record
Temperature  
Mean Temperature 57 °F 70 °F  
Max Temperature 71 °F 82 °F 92 °F (1982)
Min Temperature 43 °F 59 °F 42 °F (1997)
Degree Days  
Heating Degree Days 8    
Cooling Degree Days 0 6  
Month to date cooling degree days 98 74  
Year to date cooling degree days 150 132  
Growing Degree Days 7 (Base 50)    
Moisture  
Dew Point 44 °F    
Average Humidity 66    
Maximum Humidity 96    
Minimum Humidity 35    
Precipitation  
Precipitation 0.00 in 0.10 in 1.80 in (1974)
Month to date precipitation 2.71 1.69  
Year to date precipitation 18.89 17.80  
Sea Level Pressure  
Sea Level Pressure 30.18 in    
Wind  
Wind Speed 2 mph (NW)    
Max Wind Speed 14 mph    
Max Gust Speed 21 mph    
Visibility 10 miles    
Events      
T = Trace of Precipitation, MM = Missing Value Source: NWS Daily Summary

Daily Weather History Graph

Daily Weather History Graph

Search for Another Location

Airport or City:

Trip Planner

Search our weather history database for the weather conditions in past years. The results will help you decide how hot, cold, wet, or windy it might be!

Date:

Astronomy

May. 17, 2014 Rise Set
Actual Time 6:30 AM EDT 8:29 PM EDT
Civil Twilight 6:02 AM EDT 8:57 PM EDT
Nautical Twilight 5:29 AM EDT 9:30 PM EDT
Astronomical Twilight 4:53 AM EDT 10:07 PM EDT
Moon 11:30 PM EDT (5/17) 9:11 AM EDT (5/17)
Length of Visible Light 14h 54m
Length of Day
13h 58m
Waning Gibbous, 89% of the Moon is Illuminated
May 17
Waning Gibbous
May 21
Last Quarter
May 28
New
Jun 5
First Quarter
Jun 13
Full

Hourly Weather History & Observations

Time (EDT) Temp. Dew Point Humidity Pressure Visibility Wind Dir Wind Speed Gust Speed Precip Events Conditions
12:51 AM 48.9 °F 42.1 °F 77% 30.15 in 10.0 mi Calm Calm - N/A   Clear
1:51 AM 46.9 °F 42.1 °F 83% 30.15 in 10.0 mi Calm Calm - N/A   Clear
2:51 AM 45.0 °F 41.0 °F 86% 30.14 in 10.0 mi Calm Calm - N/A   Clear
3:51 AM 45.0 °F 41.0 °F 86% 30.14 in 10.0 mi Calm Calm - N/A   Clear
4:51 AM 44.6 °F 42.8 °F 93% 30.17 in 10.0 mi Calm Calm - N/A   Clear
5:51 AM 43.0 °F 41.0 °F 93% 30.18 in 10.0 mi Calm Calm - N/A   Clear
6:51 AM 44.1 °F 42.1 °F 93% 30.18 in 9.0 mi Calm Calm - N/A   Clear
7:51 AM 48.2 °F 44.6 °F 87% 30.19 in 10.0 mi Calm Calm - N/A   Clear
8:51 AM 57.0 °F 43.0 °F 59% 30.20 in 10.0 mi Calm Calm - N/A   Clear
9:51 AM 62.1 °F 39.9 °F 44% 30.19 in 10.0 mi Calm Calm - N/A   Clear
10:51 AM 66.0 °F 39.9 °F 38% 30.19 in 10.0 mi Calm Calm - N/A   Clear
11:51 AM 71.1 °F 42.1 °F 35% 30.20 in 10.0 mi West 9.2 mph - N/A   Partly Cloudy
12:51 PM 66.9 °F 39.0 °F 36% 30.22 in 10.0 mi West 6.9 mph - N/A   Overcast
1:51 PM 64.9 °F 42.1 °F 43% 30.21 in 10.0 mi NW 6.9 mph - N/A   Overcast
2:51 PM 64.9 °F 45.0 °F 48% 30.20 in 10.0 mi WNW 6.9 mph - N/A   Mostly Cloudy
3:51 PM 66.0 °F 45.0 °F 47% 30.18 in 10.0 mi Variable 5.8 mph - N/A   Mostly Cloudy
4:51 PM 66.0 °F 46.0 °F 48% 30.17 in 10.0 mi Variable 5.8 mph - N/A   Mostly Cloudy
5:51 PM 66.2 °F 46.4 °F 49% 30.17 in 10.0 mi North 5.8 mph - N/A   Scattered Clouds
6:51 PM 64.0 °F 46.9 °F 54% 30.17 in 10.0 mi Variable 4.6 mph - N/A   Clear
7:51 PM 62.1 °F 46.9 °F 58% 30.17 in 10.0 mi Calm Calm - N/A   Clear
8:51 PM 55.4 °F 50.0 °F 82% 30.17 in 10.0 mi Calm Calm - N/A   Clear
9:51 PM 55.0 °F 50.0 °F 83% 30.18 in 10.0 mi Calm Calm - N/A   Clear
10:51 PM 54.0 °F 50.0 °F 86% 30.19 in 10.0 mi Calm Calm - N/A   Clear
11:51 PM 54.0 °F 48.9 °F 83% 30.19 in 10.0 mi NNE 4.6 mph - N/A   Clear